Flag for Czech Republic Weather past 2 weeks in Prague, Czech Republic

Now
54 °F

Clear.


Feels Like: 52 °F
Forecast: 53 / 71 °F
Wind: 7 mph from Southeast

Location: Prague Ruzyne Airport

Current Time: Sep 18, 2014 at 3:59:00 AM

Latest Report: Sep 18, 2014 at 3:30 AM


Visibility: 10 mi

Pressure: 29.98 "Hg

Humidity: 94%

Dew point: 52 °F

Location of PragueLocation

Historic Weather in Prague — Graph

°F

Prague temperature yesterday

Maximum temperature yesterday: 72 °F (at 1:30 PM)
Minimum temperature yesterday: 54 °F (at 1:30 AM)
Average temperature yesterday: 61 °F

Past Weeks' High & Low Weather Summary

 TemperatureHumidityPressure
High79 °F (Sep 5, 5:30 PM)100% (Sep 3, 3:30 AM)30.18 "Hg (Sep 3, 3:30 AM)
Low48 °F (Sep 10, 5:30 AM)44% (Sep 7, 3:30 PM)29.83 "Hg (Sep 12, 5:30 AM)
Average61 °F83%30.03 "Hg
* Reported Sep 3 2:00 AM — Sep 18 2:30 AM, Prague, Weather by CustomWeather, © 2014

Note: Actual official high and low records may vary slightly from our data, if they occured in-between our weather recording intervals... More about our weather records

Advertising

Prague weather history for previous 24 hours

 ConditionsComfort  
Time TempWeatherWind HumidityBarometerVisibility
2:30 AM
Sep 18
52 °FClear.3 mph94%30.01 "Hg10 mi
2:00 AM54 °FClear.5 mph88%30.01 "Hg10 mi
1:30 AM54 °FClear.7 mph88%30.01 "Hg10 mi
1:00 AM54 °FClear.8 mph94%30.01 "Hg10 mi
12:30 AM55 °FClear.7 mph82%30.01 "Hg10 mi
12:00 AM55 °FClear.9 mph88%30.01 "Hg10 mi
11:30 PM
Sep 17
57 °FClear.9 mph82%30.01 "Hg10 mi
11:00 PM57 °FClear.9 mph82%30.01 "Hg10 mi
10:30 PM57 °FClear.9 mph82%30.01 "Hg10 mi
10:00 PM59 °FClear.10 mph77%30.01 "Hg10 mi
9:30 PM61 °FClear.9 mph72%30.01 "Hg10 mi
9:00 PM61 °FClear.7 mph72%30.01 "Hg10 mi
8:30 PM63 °FClear.10 mph68%30.01 "Hg10 mi
8:00 PM59 °FSunny.9 mph77%30.01 "Hg10 mi
7:30 PM61 °FSunny.9 mph72%30.01 "Hg10 mi
7:00 PM64 °FSunny.8 mph64%29.98 "Hg10 mi
6:30 PM66 °FPassing clouds.12 mph64%29.98 "HgN/A
6:00 PM68 °FSunny.14 mph56%29.98 "Hg10 mi
5:30 PM70 °FPassing clouds.14 mph53%29.98 "HgN/A
5:00 PM68 °FSunny.13 mph56%29.98 "Hg10 mi
4:30 PM72 °FPassing clouds.15 mph50%29.98 "HgN/A
4:00 PM72 °FPassing clouds.15 mph50%30.01 "HgN/A
3:30 PM70 °FSunny.17 mph53%30.01 "Hg10 mi
3:00 PM72 °FSunny.14 mph50%30.01 "Hg10 mi
2:30 PM72 °FPassing clouds.13 mph50%30.01 "HgN/A
2:00 PM72 °FSunny.15 mph50%30.01 "Hg10 mi
1:30 PM72 °FPassing clouds.14 mph50%30.01 "HgN/A
1:00 PM70 °FPassing clouds.14 mph53%30.04 "HgN/A
12:30 PM68 °FPassing clouds.10 mph64%30.04 "HgN/A
12:00 PM66 °FPassing clouds.9 mph68%30.04 "HgN/A
11:30 AM64 °FPassing clouds.8 mph73%30.04 "HgN/A
11:00 AM64 °FSunny.10 mph73%30.04 "Hg10 mi
10:30 AM61 °FPassing clouds.7 mph83%30.04 "HgN/A
10:00 AM59 °FPassing clouds.6 mph88%30.07 "HgN/A
9:30 AM57 °FPassing clouds.6 mph94%30.07 "Hg4 mi
9:00 AM55 °FPartly sunny.7 mph94%30.07 "Hg1 mi
8:30 AM55 °FFog.7 mph94%30.07 "Hg1 mi
8:00 AM54 °FFog.6 mph94%30.04 "Hg1 mi
7:30 AM54 °FFog.7 mph94%30.04 "Hg2 mi
7:00 AM54 °FFog.7 mph94%30.04 "Hg3 mi
6:30 AM54 °FFog.10 mph94%30.04 "Hg3 mi
6:00 AM54 °FClear.8 mph94%30.04 "Hg4 mi
5:30 AM54 °FClear.10 mph100%30.04 "Hg4 mi
5:00 AM54 °FClear.8 mph100%30.04 "Hg5 mi
4:30 AM54 °FClear.5 mph94%30.04 "Hg5 mi
4:00 AM54 °FClear.3 mph94%30.04 "Hg5 mi
3:30 AM55 °FClear.5 mph94%30.07 "Hg6 mi
3:00 AM55 °FClear.7 mph94%30.07 "Hg10 mi
Weather by CustomWeather, © 2014

See weather overviewHow to use our weather pages